Temperature
22 21 21 21 20 20 20 20 20 20 20 20 20 20 20 20 20 20 19 19 19 19 19 19 19 19 19 19 19 19 19 19 19 19 19 19 18 18 18 17 17 16 17
22 21 22 21 20 20 20 20 20 20 20 20 20 20 20 20 20 20 20 19 19 19 19 19 19 19 19 20 20 20 20 20 20 19 19 19 19 19 18 18 17 17 18
22 22 22 21 21 20 20 20 20 20 20 20 20 20 20 20 20 20 20 20 20 20 20 20 20 20 20 20 20 20 20 20 20 19 19 18 18 19 19 19 18 18 18
22 22 22 21 21 20 20 20 20 20 20 20 20 20 20 20 20 20 20 20 20 20 20 20 20 20 20 20 20 20 20 20 20 19 18 18 18 19 19 19 19 18 18
21 21 22 22 21 21 20 20 20 20 20 20 20 20 20 20 20 20 20 20 20 20 20 20 20 20 20 19 19 19 19 19 19 19 18 18 17 18 19 19 19 19 18
21 21 22 22 21 21 20 20 20 20 20 20 20 20 20 20 20 20 20 19 19 19 19 19 19 19 19 19 19 19 19 19 19 18 18 17 17 18 18 18 18 18 18
21 21 21 22 21 21 21 20 20 20 20 20 20 20 20 19 19 19 19 19 19 19 19 19 19 19 19 18 18 18 18 18 18 18 17 17 17 18 18 18 18 18 18
21 21 21 22 21 21 21 20 20 20 20 20 20 19 19 19 19 19 19 19 19 19 19 19 19 19 19 18 18 18 18 18 17 17 17 17 17 17 17 17 17 17 17
22 21 20 21 21 21 21 20 20 20 20 20 20 19 19 19 19 19 19 19 19 19 19 19 19 19 19 18 18 18 18 18 17 18 17 17 17 17 18 17 17 17 17
21 21 20 20 19 20 20 20 20 20 20 20 19 19 19 19 19 19 19 19 19 19 19 19 19 19 19 19 19 18 18 18 18 18 18 17 17 17 17 18 18 18 17
20 20 20 20 19 19 19 19 20 20 20 20 19 19 19 19 18 18 18 19 19 19 19 19 19 19 19 19 19 18 18 18 18 18 18 18 17 17 17 17 17 18 18
20 20 20 20 19 19 19 19 19 19 19 19 18 18 18 18 18 18 18 19 19 19 19 19 19 19 19 18 18 18 18 18 18 18 18 18 18 18 18 18 17 17 18
20 20 20 19 19 19 19 19 19 19 19 18 18 18 19 18 18 18 18 18 19 19 19 18 18 18 18 18 18 18 18 18 18 18 18 18 18 18 18 18 18 18 18
21 20 20 20 19 19 19 19 19 18 18 18 18 18 18 18 18 18 18 18 18 18 18 18 18 17 17 17 17 18 18 18 18 18 18 18 18 18 18 18 18 18 18
21 20 20 20 20 20 20 19 18 18 18 18 18 18 18 18 18 18 18 18 18 18 18 18 18 17 17 17 17 18 18 18 18 18 18 18 19 19 19 18 18 18 18
21 21 20 20 20 20 20 20 19 19 19 18 18 18 18 18 18 18 18 18 18 18 18 18 18 18 18 18 18 18 18 18 18 18 18 18 18 19 19 19 19 18 18
21 21 20 20 20 20 20 20 19 19 19 18 18 18 18 18 18 18 18 18 18 18 18 18 18 18 18 18 18 18 18 18 18 18 18 18 18 18 19 19 19 19 19
22 21 20 20 20 19 19 19 19 19 18 18 18 18 17 17 17 17 17 17 17 17 18 18 18 18 18 18 18 18 18 18 18 18 18 18 18 18 18 18 19 19 19
21 21 20 20 19 19 19 19 19 19 18 18 18 17 17 17 17 17 17 17 17 17 17 17 17 17 17 17 17 17 18 18 18 18 18 18 18 18 18 18 18 19 19
21 20 20 20 19 19 19 19 19 19 18 18 18 17 17 17 16 16 16 16 16 16 16 16 16 16 17 17 17 18 18 18 18 18 18 18 18 18 18 18 18 18 19
21 21 20 20 20 20 19 19 19 19 19 18 18 17 17 16 16 16 16 16 15 16 16 16 16 16 16 16 16 17 18 18 18 18 18 18 18 18 18 18 18 18 18
22 21 21 20 20 20 19 19 19 19 18 18 17 17 16 16 16 16 15 15 15 15 15 15 15 15 16 16 16 17 18 19 19 18 18 18 18 18 18 18 18 18 18
22 21 21 20 20 20 20 19 19 19 18 18 17 17 16 16 16 15 15 15 15 15 15 15 15 15 15 16 16 16 18 19 20 20 19 18 18 18 18 18 18 17 17
22 21 20 20 20 20 20 19 19 19 19 18 17 17 16 15 15 15 15 15 15 15 14 14 14 14 14 15 15 16 16 17 18 19 19 18 17 17 17 17 17 17 17
21 20 20 20 20 20 20 19 19 18 18 18 17 16 16 15 15 14 14 14 14 14 14 14 14 14 14 14 14 15 15 15 15 16 18 18 18 17 16 16 16 16 16
20 20 19 19 20 20 20 19 19 19 18 18 17 16 16 15 14 14 14 14 14 14 14 14 14 14 14 13 14 14 15 15 16 16 17 17 17 17 16 16 16 16 16
Wind_Speed
13 19 22 18 16 14 14 14 15 17 18 18 17 16 15 13 11 10 10 9 9 9 9 9 8 8 9 10 10 11 11 11 10 10 10 9 9 8 9 8 7 10 11
16 21 22 18 16 15 14 14 15 16 16 16 16 15 14 13 11 10 9 9 9 9 8 8 7 7 7 8 9 9 10 10 9 9 9 10 9 8 7 6 1 10 10
18 21 21 18 17 16 15 14 15 15 15 15 15 14 13 12 11 11 10 9 8 8 8 7 7 6 6 7 7 7 8 8 8 8 8 8 9 8 6 5 4 9 9
19 20 20 20 17 16 15 15 15 14 14 14 13 12 11 10 10 10 10 9 8 8 7 6 6 6 6 6 6 6 6 6 7 7 9 5 7 10 7 6 6 8 9
17 18 19 20 18 16 15 14 14 14 14 13 12 12 11 10 9 9 8 8 7 7 6 6 5 5 5 5 5 5 5 5 6 9 5 4 3 10 8 9 9 9 9
17 17 20 20 18 17 15 14 13 13 13 12 12 11 11 10 9 9 8 8 7 6 6 5 5 5 5 5 5 6 6 6 8 11 6 7 7 9 8 11 12 11 11
17 16 20 20 18 17 16 14 13 12 12 12 11 10 10 9 9 9 8 8 7 7 6 6 6 5 5 6 6 7 8 9 12 9 7 9 7 10 10 12 15 15 14
16 16 19 19 18 17 16 15 14 13 12 12 11 11 10 9 9 9 9 9 8 8 8 8 7 7 7 7 8 8 9 11 13 11 10 10 8 9 11 12 15 18 18
14 14 16 18 17 17 15 15 14 13 13 12 12 11 11 10 10 10 10 10 10 10 10 10 10 10 10 10 10 10 11 11 14 11 10 10 9 11 12 13 13 16 20
13 13 13 15 16 16 16 15 14 14 14 13 13 13 12 12 12 12 12 13 12 12 12 12 12 12 12 12 12 12 11 12 15 15 11 9 12 11 13 14 13 14 18
11 11 12 13 13 14 14 16 16 15 15 15 15 15 14 14 14 14 15 11 11 13 14 14 14 14 14 15 16 15 13 14 15 13 11 6 11 11 14 15 15 15 16
12 12 12 12 12 12 12 12 13 15 15 16 14 15 14 13 11 11 6 9 13 14 15 17 17 16 16 15 16 18 13 15 15 12 11 10 12 14 16 17 17 17 17
12 11 12 11 10 11 9 9 10 10 10 13 14 13 12 11 11 11 10 10 13 14 14 14 15 14 14 12 11 11 12 12 11 11 10 13 15 17 17 17 18 18 19
10 11 11 11 10 10 9 8 8 9 8 9 11 13 11 8 9 9 8 10 9 9 9 10 10 12 12 13 13 13 14 12 12 11 10 10 15 17 18 17 18 18 19
9 10 10 10 10 9 8 8 8 8 9 9 9 10 11 9 9 9 8 9 10 10 10 9 10 11 11 12 13 14 14 14 14 14 12 13 17 18 19 18 17 17 18
9 9 9 10 10 9 8 8 8 8 8 9 9 11 11 10 9 9 10 9 10 11 11 10 11 11 11 10 13 14 14 16 14 14 15 14 18 20 20 19 18 18 18
9 9 9 9 10 10 10 10 8 8 9 8 8 10 11 11 11 10 10 11 11 12 12 10 12 11 11 12 14 15 14 14 15 15 16 16 15 18 21 21 20 19 18
8 9 9 8 9 9 8 8 7 7 7 6 7 8 9 9 10 9 9 10 10 11 9 10 11 11 12 12 12 13 13 12 16 16 17 17 16 16 16 22 21 20 19
8 7 8 8 7 7 6 6 6 5 6 5 6 5 5 6 6 6 7 7 8 8 9 11 10 11 12 13 13 13 14 14 15 16 17 18 17 16 16 14 20 21 20
6 6 6 7 6 5 4 4 4 4 5 5 4 3 4 4 5 7 8 8 9 9 9 10 11 11 12 12 14 14 14 14 14 15 16 16 15 17 18 17 15 17 22
7 7 6 6 6 4 3 3 3 4 4 4 4 3 4 5 5 6 8 8 9 10 11 13 13 14 13 12 12 14 15 17 17 15 15 15 16 16 16 16 15 14 13
8 7 7 7 6 5 4 3 3 4 5 5 5 4 5 5 6 7 7 9 10 10 12 13 13 13 13 12 12 13 14 15 14 16 15 15 16 14 15 15 14 13 13
8 7 6 6 6 6 5 5 4 5 6 6 6 5 4 5 7 7 8 10 10 12 12 12 12 15 14 14 13 13 12 13 12 11 13 13 13 12 13 12 13 12 13
7 6 6 7 7 7 7 7 7 7 7 7 6 5 5 6 7 7 8 9 10 11 11 12 12 13 14 14 14 14 16 16 13 12 10 11 12 12 12 10 10 11 11
4 5 6 7 8 8 8 8 8 9 7 6 6 6 7 7 6 7 8 9 9 10 11 11 12 13 12 14 14 14 14 14 16 15 14 11 10 10 10 9 8 8 7
5 6 8 8 9 9 9 9 9 9 8 8 8 8 7 7 6 7 7 8 10 10 10 11 12 13 13 14 14 14 14 12 13 14 15 14 11 8 7 5 5 4 4
Wind_Direction
155 147 150 159 154 147 141 135 133 136 138 138 137 137 138 140 140 135 128 123 119 116 113 112 108 106 104 103 109 119 119 118 119 123 123 121 120 120 122 129 163 124 116
148 146 151 159 155 150 145 140 136 136 137 138 138 140 142 144 142 139 136 132 129 128 127 123 118 114 112 113 115 121 126 127 130 133 136 134 127 126 132 148 299 111 132
146 146 154 158 156 152 149 146 142 141 140 141 142 144 146 147 147 147 146 143 140 137 136 134 130 126 124 125 128 129 132 138 144 153 183 164 136 142 148 155 133 131 149
148 149 157 157 159 156 153 152 150 148 146 146 147 149 151 153 154 155 156 157 156 152 150 148 145 141 140 142 144 145 145 149 161 184 209 163 157 149 176 177 172 166 169
146 150 150 158 161 159 158 157 156 155 154 154 155 157 160 163 166 168 169 170 172 172 171 170 168 165 164 166 168 171 174 179 187 223 220 204 187 142 187 191 192 190 187
150 154 151 162 163 163 163 163 163 163 163 164 165 167 171 174 178 182 184 187 190 193 196 196 195 192 195 197 199 203 206 209 222 228 214 221 211 157 193 197 199 204 203
156 155 154 164 165 166 168 169 170 171 172 174 176 179 183 187 192 196 199 202 205 211 218 223 223 222 223 229 230 228 224 225 244 250 229 231 223 165 207 214 207 206 209
159 160 153 164 168 170 172 174 177 179 182 185 188 191 197 203 209 216 218 220 222 225 230 235 238 240 239 240 244 245 242 246 247 245 239 238 206 190 228 237 226 215 210
163 162 159 168 172 175 178 181 184 187 191 196 200 203 207 213 219 227 233 234 234 235 238 241 243 246 247 247 248 247 247 249 266 258 244 240 188 203 233 247 245 229 219
168 171 169 176 175 181 184 187 192 196 200 205 210 213 216 220 224 228 236 232 234 239 243 247 250 253 253 252 251 248 245 247 252 257 247 230 177 208 234 244 247 241 230
177 181 183 182 181 190 193 185 195 202 207 211 214 216 222 231 230 221 227 225 235 244 248 250 253 256 257 250 245 246 244 250 253 257 258 195 178 219 240 243 243 242 238
184 188 192 194 187 199 203 192 207 212 210 217 225 220 223 234 245 250 222 222 244 252 255 252 252 255 254 253 236 222 243 247 255 254 245 188 203 229 241 243 243 242 240
182 188 192 198 195 207 212 217 220 226 225 227 232 234 239 247 247 249 249 230 232 239 249 248 244 249 254 257 266 252 253 262 259 259 248 190 211 231 240 240 241 242 241
177 183 192 194 202 214 226 229 234 239 234 236 234 237 242 248 255 258 257 262 259 251 250 260 261 259 262 268 264 264 263 260 262 262 259 209 220 232 241 240 239 242 242
175 183 189 197 204 212 224 245 246 252 255 244 244 243 244 249 257 261 265 266 269 269 263 260 266 270 268 268 268 264 262 261 262 264 261 225 223 233 241 244 242 242 242
182 185 189 200 205 212 220 231 246 252 251 262 256 254 256 258 262 264 264 264 265 265 267 267 265 267 266 267 269 270 268 264 260 258 262 254 224 225 234 241 244 245 243
190 193 198 205 208 215 226 234 243 250 251 254 259 264 264 263 265 265 267 265 263 261 259 259 262 261 259 259 260 261 261 260 259 256 256 261 258 231 222 229 236 241 244
201 201 209 217 214 219 233 249 260 265 269 272 278 278 279 278 272 271 268 269 270 265 260 257 255 256 255 254 257 259 259 257 253 250 251 249 252 259 237 220 224 230 237
208 211 214 219 222 225 236 247 260 269 275 275 276 283 292 293 296 287 283 284 282 274 269 267 265 262 263 261 258 255 252 250 249 246 246 248 248 250 256 236 215 221 230
191 196 201 200 205 213 221 230 251 260 265 266 272 276 286 291 298 302 292 294 292 284 278 273 275 267 266 266 267 266 260 254 248 245 244 244 245 247 249 251 241 228 222
163 169 176 176 170 186 198 231 242 257 265 265 265 271 278 292 301 295 295 297 286 284 285 285 280 273 266 264 264 264 260 254 248 247 245 246 245 244 246 248 249 252 239
158 162 167 174 173 191 192 229 259 288 279 283 278 266 274 290 298 294 298 293 289 288 280 276 274 274 273 262 258 266 265 258 243 239 239 239 243 244 243 240 240 241 250
168 175 184 187 194 210 214 229 234 244 255 254 259 258 272 295 298 301 296 293 295 287 283 281 278 270 269 267 254 254 262 262 262 246 230 236 241 242 242 240 235 237 240
183 192 205 213 219 222 227 241 254 270 283 294 290 288 289 284 291 293 291 290 289 288 286 279 273 272 268 266 260 249 253 269 273 265 239 227 228 235 242 240 239 236 238
216 230 233 235 235 232 234 240 249 259 273 279 280 275 279 282 280 284 290 293 290 286 287 285 281 272 268 265 264 260 252 251 250 256 259 250 227 226 228 230 241 247 247
292 279 267 255 249 241 235 240 244 258 266 274 274 282 278 282 280 280 289 290 288 290 289 283 278 274 268 265 263 263 258 251 243 241 245 248 245 235 222 229 237 240 234
Height
1525 1526 1527 1529 1532 1536 1538 1541 1543 1545 1546 1547 1549 1550 1550 1551 1551 1552 1552 1553 1554 1555 1556 1556 1557 1557 1557 1557 1558 1558 1558 1558 1559 1559 1559 1559 1560 1560 1560 1561 1561 1563 1562
1525 1526 1528 1530 1533 1536 1539 1542 1544 1546 1547 1549 1550 1551 1552 1553 1553 1554 1554 1555 1556 1557 1557 1558 1558 1559 1559 1559 1559 1559 1559 1560 1560 1560 1561 1561 1561 1561 1562 1562 1563 1565 1564
1524 1526 1529 1531 1534 1537 1540 1543 1545 1547 1548 1550 1551 1552 1553 1554 1555 1555 1556 1557 1557 1558 1558 1559 1559 1560 1560 1560 1560 1560 1561 1561 1561 1562 1562 1565 1564 1563 1563 1564 1564 1565 1565
1526 1527 1530 1532 1535 1538 1541 1544 1546 1548 1549 1551 1552 1553 1554 1555 1556 1556 1557 1558 1558 1559 1559 1560 1560 1560 1560 1561 1561 1561 1561 1562 1562 1563 1565 1567 1566 1564 1564 1565 1565 1566 1566
1527 1529 1531 1533 1536 1539 1542 1544 1547 1548 1550 1551 1552 1553 1554 1555 1556 1557 1557 1558 1558 1559 1559 1560 1560 1560 1560 1560 1561 1561 1561 1562 1562 1563 1566 1566 1566 1565 1565 1565 1566 1566 1567
1528 1531 1532 1534 1537 1540 1543 1545 1547 1549 1550 1551 1552 1553 1554 1555 1556 1556 1557 1557 1558 1558 1559 1559 1559 1559 1560 1560 1560 1560 1560 1561 1561 1564 1565 1565 1566 1564 1564 1565 1565 1566 1567
1531 1533 1533 1535 1538 1541 1543 1546 1547 1549 1550 1551 1552 1553 1554 1555 1555 1556 1556 1557 1557 1558 1558 1558 1558 1558 1558 1559 1559 1559 1559 1559 1559 1563 1563 1563 1563 1562 1563 1563 1564 1565 1566
1532 1534 1534 1536 1539 1541 1544 1546 1547 1548 1550 1551 1552 1553 1554 1554 1555 1555 1556 1556 1556 1557 1557 1557 1557 1557 1557 1557 1557 1557 1557 1557 1559 1560 1560 1560 1560 1560 1561 1561 1562 1563 1564
1534 1536 1535 1537 1539 1541 1543 1545 1547 1548 1549 1550 1551 1552 1553 1553 1554 1554 1554 1554 1555 1555 1555 1556 1556 1556 1556 1556 1555 1556 1555 1555 1555 1558 1558 1558 1557 1557 1557 1558 1559 1561 1562
1534 1536 1537 1539 1540 1541 1543 1544 1546 1547 1548 1549 1550 1551 1551 1552 1552 1552 1553 1553 1553 1553 1553 1553 1554 1554 1554 1553 1553 1553 1553 1553 1554 1556 1555 1555 1553 1553 1554 1555 1556 1557 1558
1533 1535 1537 1540 1540 1542 1544 1544 1545 1546 1547 1547 1548 1548 1549 1550 1551 1551 1551 1551 1551 1551 1551 1551 1551 1551 1551 1551 1551 1551 1551 1551 1552 1553 1552 1551 1550 1550 1550 1551 1552 1553 1555
1531 1533 1536 1539 1539 1541 1543 1543 1544 1545 1545 1545 1546 1547 1547 1548 1548 1549 1549 1548 1548 1548 1548 1548 1548 1548 1548 1548 1549 1548 1548 1548 1549 1549 1548 1546 1546 1546 1547 1547 1548 1549 1550
1530 1533 1535 1536 1537 1539 1541 1542 1543 1544 1543 1543 1544 1544 1544 1545 1545 1546 1546 1546 1545 1545 1545 1546 1545 1545 1545 1546 1546 1546 1545 1546 1546 1545 1545 1543 1543 1543 1543 1544 1544 1545 1546
1530 1532 1534 1535 1535 1536 1539 1540 1540 1541 1541 1541 1540 1541 1541 1541 1541 1542 1542 1542 1543 1542 1542 1542 1542 1542 1541 1541 1541 1541 1541 1541 1541 1541 1541 1539 1540 1540 1540 1540 1541 1541 1542
1529 1531 1533 1533 1534 1535 1536 1536 1537 1537 1538 1538 1537 1538 1538 1538 1537 1538 1537 1537 1537 1538 1538 1537 1537 1537 1537 1536 1537 1537 1537 1537 1537 1537 1537 1536 1535 1536 1536 1537 1537 1538 1538
1529 1531 1532 1532 1533 1533 1534 1534 1534 1534 1534 1534 1534 1534 1534 1533 1533 1533 1532 1532 1532 1532 1532 1531 1531 1531 1531 1531 1531 1531 1531 1532 1532 1531 1532 1532 1531 1531 1531 1532 1532 1533 1534
1528 1529 1530 1531 1532 1532 1532 1532 1532 1531 1531 1531 1530 1530 1529 1529 1529 1528 1527 1527 1527 1527 1526 1526 1525 1525 1525 1525 1524 1524 1524 1525 1525 1525 1526 1526 1527 1526 1525 1526 1527 1528 1529
1526 1527 1528 1530 1530 1530 1530 1529 1529 1529 1528 1528 1527 1526 1526 1525 1525 1524 1523 1522 1522 1521 1521 1520 1520 1519 1519 1518 1518 1518 1518 1517 1517 1518 1519 1519 1520 1521 1521 1520 1521 1522 1523
1524 1525 1526 1526 1527 1527 1527 1527 1527 1526 1525 1525 1524 1524 1523 1522 1521 1521 1520 1518 1517 1516 1515 1515 1514 1513 1513 1512 1512 1511 1511 1510 1510 1511 1511 1513 1514 1514 1515 1515 1514 1515 1517
1521 1522 1523 1523 1524 1525 1526 1525 1525 1524 1524 1524 1523 1522 1521 1520 1519 1517 1517 1515 1513 1512 1511 1510 1508 1508 1507 1506 1506 1505 1505 1504 1504 1504 1504 1505 1506 1507 1508 1509 1509 1509 1509
1518 1520 1521 1522 1523 1523 1524 1525 1524 1524 1523 1522 1521 1519 1518 1517 1515 1513 1513 1511 1509 1508 1506 1505 1504 1503 1502 1501 1500 1499 1498 1497 1497 1497 1497 1498 1499 1499 1500 1501 1502 1503 1503
1517 1519 1520 1521 1522 1522 1523 1522 1522 1521 1521 1520 1519 1517 1515 1513 1511 1510 1507 1506 1504 1502 1500 1498 1497 1497 1496 1496 1495 1493 1491 1491 1489 1489 1489 1490 1491 1492 1493 1494 1494 1494 1495
1517 1519 1520 1520 1520 1521 1521 1521 1520 1519 1518 1517 1516 1514 1512 1510 1508 1505 1503 1501 1498 1496 1495 1493 1491 1490 1489 1489 1489 1489 1486 1482 1482 1482 1482 1483 1484 1485 1486 1487 1487 1488 1488
1516 1517 1518 1518 1518 1518 1518 1519 1519 1518 1517 1515 1513 1512 1509 1506 1503 1501 1498 1496 1493 1491 1489 1486 1485 1483 1482 1481 1481 1481 1480 1479 1478 1477 1477 1477 1477 1478 1479 1481 1481 1482 1482
1516 1516 1516 1515 1515 1515 1516 1516 1515 1515 1513 1512 1510 1507 1504 1503 1499 1497 1494 1492 1489 1486 1484 1481 1478 1476 1475 1474 1474 1474 1473 1473 1473 1473 1472 1472 1472 1472 1473 1474 1475 1476 1476
1514 1515 1514 1513 1513 1512 1512 1512 1511 1511 1509 1508 1506 1504 1502 1500 1497 1494 1491 1488 1485 1483 1479 1476 1473 1471 1469 1467 1466 1466 1466 1466 1466 1466 1466 1466 1467 1467 1468 1468 1469 1469 1470